Time,TemperatureF,DewpointF,PressureIn,WindDirection,WindDirectionDegrees,WindSpeedMPH,WindSpeedGustMPH,Humidity,HourlyPrecipIn,Conditions,Clouds,dailyrainin,SoftwareType,DateUTC
2013-02-19 00:01:00,47.1,36.0,29.97,SE,142,0.0,-999.0,66,-99.99,,,0.00,weatherlink.com 1.10,2013-02-19 08:01:00,
2013-02-19 00:16:00,47.3,36.0,29.96,SSE,153,0.0,-999.0,65,-99.99,,,0.00,weatherlink.com 1.10,2013-02-19 08:16:00,
2013-02-19 00:31:00,47.3,36.0,29.96,West,281,2.0,-999.0,66,-99.99,,,0.00,weatherlink.com 1.10,2013-02-19 08:31:00,
2013-02-19 00:46:00,47.1,36.0,29.96,SW,217,0.0,-999.0,66,-99.99,,,0.00,weatherlink.com 1.10,2013-02-19 08:46:00,
2013-02-19 01:01:00,47.3,36.0,29.96,SW,231,0.0,-999.0,66,-99.99,,,0.00,weatherlink.com 1.10,2013-02-19 09:01:00,
2013-02-19 01:16:00,47.4,37.0,29.96,West,269,0.0,-999.0,67,-99.99,,,0.00,weatherlink.com 1.10,2013-02-19 09:16:00,
2013-02-19 01:31:00,47.4,37.0,29.96,WNW,294,0.0,-999.0,68,-99.99,,,0.00,weatherlink.com 1.10,2013-02-19 09:31:00,
2013-02-19 01:46:00,47.4,37.0,29.95,NNW,339,0.0,-999.0,68,-99.99,,,0.00,weatherlink.com 1.10,2013-02-19 09:46:00,
2013-02-19 02:01:00,47.3,37.0,29.95,NW,309,0.0,-999.0,68,-99.99,,,0.00,weatherlink.com 1.10,2013-02-19 10:01:00,
2013-02-19 02:16:00,47.3,37.0,29.94,NW,323,0.0,-999.0,68,-99.99,,,0.00,weatherlink.com 1.10,2013-02-19 10:16:00,
2013-02-19 02:31:00,47.3,37.0,29.94,West,263,0.0,-999.0,68,-99.99,,,0.00,weatherlink.com 1.10,2013-02-19 10:31:00,
2013-02-19 02:46:00,47.3,38.0,29.93,West,273,0.0,-999.0,69,-99.99,,,0.00,weatherlink.com 1.10,2013-02-19 10:46:00,
2013-02-19 03:01:00,47.1,38.0,29.92,West,277,0.0,-999.0,70,-99.99,,,0.00,weatherlink.com 1.10,2013-02-19 11:01:00,
2013-02-19 03:16:00,46.7,38.0,29.92,West,277,0.0,-999.0,71,-99.99,,,0.00,weatherlink.com 1.10,2013-02-19 11:16:00,
2013-02-19 03:31:00,46.5,38.0,29.91,West,277,0.0,-999.0,73,-99.99,,,0.00,weatherlink.com 1.10,2013-02-19 11:31:00,
2013-02-19 03:46:00,45.8,38.0,29.91,West,277,0.0,-999.0,74,-99.99,,,0.00,weatherlink.com 1.10,2013-02-19 11:46:00,
2013-02-19 04:01:00,45.1,38.0,29.91,ESE,102,0.0,-999.0,76,-99.99,,,0.00,weatherlink.com 1.10,2013-02-19 12:01:00,
2013-02-19 04:16:00,45.4,39.0,29.90,ESE,103,0.0,-999.0,77,-99.99,,,0.00,weatherlink.com 1.10,2013-02-19 12:16:00,
2013-02-19 04:31:00,45.7,39.0,29.90,ESE,103,0.0,-999.0,78,-99.99,,,0.00,weatherlink.com 1.10,2013-02-19 12:31:00,
2013-02-19 04:46:00,46.1,40.0,29.90,ESE,104,0.0,-999.0,78,-99.99,,,0.00,weatherlink.com 1.10,2013-02-19 12:46:00,
2013-02-19 05:01:00,46.7,41.0,29.89,SW,232,0.0,-999.0,79,-99.99,,,0.00,weatherlink.com 1.10,2013-02-19 13:01:00,
2013-02-19 05:16:00,47.0,41.0,29.89,SSW,201,0.0,-999.0,79,-99.99,,,0.00,weatherlink.com 1.10,2013-02-19 13:16:00,
2013-02-19 05:31:00,47.1,41.0,29.89,SE,145,0.0,-999.0,78,-99.99,,,0.00,weatherlink.com 1.10,2013-02-19 13:31:00,
2013-02-19 05:46:00,47.3,42.0,29.89,WSW,251,1.0,-999.0,81,-99.99,,,0.05,weatherlink.com 1.10,2013-02-19 13:46:00,
2013-02-19 06:01:00,47.0,43.0,29.89,East,94,0.0,-999.0,86,-99.99,,,0.07,weatherlink.com 1.10,2013-02-19 14:01:00,
2013-02-19 06:16:00,46.8,44.0,29.88,SSE,147,0.0,-999.0,88,-99.99,,,0.07,weatherlink.com 1.10,2013-02-19 14:16:00,
2013-02-19 06:31:00,46.7,44.0,29.87,South,180,0.0,-999.0,89,-99.99,,,0.07,weatherlink.com 1.10,2013-02-19 14:31:00,
2013-02-19 06:46:00,46.7,44.0,29.87,South,180,0.0,-999.0,89,-99.99,,,0.07,weatherlink.com 1.10,2013-02-19 14:46:00,
2013-02-19 07:01:00,46.5,44.0,29.86,SE,129,0.0,-999.0,90,-99.99,,,0.07,weatherlink.com 1.10,2013-02-19 15:01:00,
2013-02-19 07:16:00,46.4,43.0,29.86,South,182,0.0,-999.0,89,-99.99,,,0.07,weatherlink.com 1.10,2013-02-19 15:16:00,
2013-02-19 07:31:00,46.5,43.0,29.86,SW,217,2.0,-999.0,88,-99.99,,,0.07,weatherlink.com 1.10,2013-02-19 15:31:00,
2013-02-19 07:46:00,46.8,44.0,29.85,SSW,213,0.0,-999.0,88,-99.99,,,0.07,weatherlink.com 1.10,2013-02-19 15:46:00,
2013-02-19 08:01:00,47.1,44.0,29.85,SSW,205,0.0,-999.0,87,-99.99,,,0.07,weatherlink.com 1.10,2013-02-19 16:01:00,
2013-02-19 08:16:00,47.3,43.0,29.85,SSW,202,2.0,-999.0,85,-99.99,,,0.07,weatherlink.com 1.10,2013-02-19 16:16:00,
2013-02-19 08:32:00,47.4,43.0,29.84,SW,236,4.0,-999.0,83,-99.99,,,0.07,weatherlink.com 1.10,2013-02-19 16:32:00,
2013-02-19 08:46:00,47.7,43.0,29.83,SSW,192,1.0,-999.0,82,-99.99,,,0.07,weatherlink.com 1.10,2013-02-19 16:46:00,
2013-02-19 09:01:00,47.9,43.0,29.83,SW,225,2.0,-999.0,84,-99.99,,,0.08,weatherlink.com 1.10,2013-02-19 17:01:00,
2013-02-19 09:16:00,46.5,43.0,29.84,ESE,106,0.0,-999.0,86,-99.99,,,0.15,weatherlink.com 1.10,2013-02-19 17:16:00,
2013-02-19 09:31:00,45.7,42.0,29.83,WNW,292,1.0,-999.0,88,-99.99,,,0.19,weatherlink.com 1.10,2013-02-19 17:31:00,
2013-02-19 09:46:00,45.5,43.0,29.83,SW,233,0.0,-999.0,90,-99.99,,,0.20,weatherlink.com 1.10,2013-02-19 17:46:00,
2013-02-19 10:02:00,45.5,43.0,29.82,WNW,296,0.0,-999.0,90,-99.99,,,0.23,weatherlink.com 1.10,2013-02-19 18:02:00,
2013-02-19 10:16:00,45.5,43.0,29.83,West,259,0.0,-999.0,91,-99.99,,,0.25,weatherlink.com 1.10,2013-02-19 18:16:00,
2013-02-19 10:31:00,45.2,43.0,29.83,West,259,0.0,-999.0,91,-99.99,,,0.26,weatherlink.com 1.10,2013-02-19 18:31:00,
2013-02-19 10:46:00,44.8,42.0,29.83,ESE,108,0.0,-999.0,90,-99.99,,,0.27,weatherlink.com 1.10,2013-02-19 18:46:00,
2013-02-19 11:02:00,45.1,43.0,29.83,ESE,108,0.0,-999.0,91,-99.99,,,0.28,weatherlink.com 1.10,2013-02-19 19:02:00,
2013-02-19 11:16:00,45.4,43.0,29.82,ESE,108,0.0,-999.0,92,-99.99,,,0.28,weatherlink.com 1.10,2013-02-19 19:16:00,
2013-02-19 11:31:00,45.7,43.0,29.81,ESE,108,0.0,-999.0,90,-99.99,,,0.28,weatherlink.com 1.10,2013-02-19 19:31:00,
2013-02-19 11:46:00,46.0,43.0,29.80,SSW,197,1.0,-999.0,89,-99.99,,,0.28,weatherlink.com 1.10,2013-02-19 19:46:00,
2013-02-19 12:01:00,45.5,42.0,29.82,West,273,2.0,-999.0,88,-99.99,,,0.29,weatherlink.com 1.10,2013-02-19 20:01:00,
2013-02-19 12:17:00,44.2,41.0,29.81,West,271,0.0,-999.0,87,-99.99,,,0.31,weatherlink.com 1.10,2013-02-19 20:17:00,
2013-02-19 12:31:00,44.1,41.0,29.81,West,271,0.0,-999.0,87,-99.99,,,0.31,weatherlink.com 1.10,2013-02-19 20:31:00,
2013-02-19 12:46:00,44.2,41.0,29.81,SSW,194,0.0,-999.0,87,-99.99,,,0.31,weatherlink.com 1.10,2013-02-19 20:46:00,
2013-02-19 13:02:00,43.6,39.0,29.81,NNE,30,4.0,-999.0,85,-99.99,,,0.32,weatherlink.com 1.10,2013-02-19 21:02:00,
2013-02-19 13:17:00,43.5,39.0,29.79,ESE,111,0.0,-999.0,84,-99.99,,,0.32,weatherlink.com 1.10,2013-02-19 21:17:00,
2013-02-19 13:32:00,43.5,38.0,29.79,South,171,0.0,-999.0,82,-99.99,,,0.32,weatherlink.com 1.10,2013-02-19 21:32:00,
2013-02-19 14:02:00,47.0,41.0,29.78,NNW,345,0.0,-999.0,81,-99.99,,,0.32,weatherlink.com 1.10,2013-02-19 22:02:00,
2013-02-19 14:16:00,47.7,41.0,29.77,East,86,0.0,-999.0,77,-99.99,,,0.32,weatherlink.com 1.10,2013-02-19 22:16:00,
2013-02-19 14:32:00,49.6,39.0,29.77,WNW,284,3.0,-999.0,68,-99.99,,,0.32,weatherlink.com 1.10,2013-02-19 22:32:00,
2013-02-19 14:47:00,48.8,39.0,29.78,NE,49,1.0,-999.0,69,-99.99,,,0.32,weatherlink.com 1.10,2013-02-19 22:47:00,
2013-02-19 15:02:00,48.0,39.0,29.77,WSW,250,0.0,-999.0,72,-99.99,,,0.32,weatherlink.com 1.10,2013-02-19 23:02:00,
2013-02-19 15:17:00,46.8,40.0,29.77,North,360,0.0,-999.0,77,-99.99,,,0.32,weatherlink.com 1.10,2013-02-19 23:17:00,
2013-02-19 15:32:00,47.6,37.0,29.77,East,92,0.0,-999.0,67,-99.99,,,0.32,weatherlink.com 1.10,2013-02-19 23:32:00,
2013-02-19 15:47:00,49.2,36.0,29.77,West,261,2.0,-999.0,60,-99.99,,,0.32,weatherlink.com 1.10,2013-02-19 23:47:00,
2013-02-19 16:02:00,49.4,35.0,29.76,WNW,282,0.0,-999.0,57,-99.99,,,0.32,weatherlink.com 1.10,2013-02-20 00:02:00,
2013-02-19 16:17:00,48.8,34.0,29.77,NW,304,1.0,-999.0,58,-99.99,,,0.32,weatherlink.com 1.10,2013-02-20 00:17:00,
2013-02-19 16:32:00,48.3,34.0,29.75,WNW,298,0.0,-999.0,58,-99.99,,,0.32,weatherlink.com 1.10,2013-02-20 00:32:00,
2013-02-19 16:47:00,47.7,34.0,29.75,SW,216,1.0,-999.0,60,-99.99,,,0.32,weatherlink.com 1.10,2013-02-20 00:47:00,
2013-02-19 17:02:00,47.7,34.0,29.75,SW,236,0.0,-999.0,59,-99.99,,,0.32,weatherlink.com 1.10,2013-02-20 01:02:00,
2013-02-19 17:17:00,47.1,34.0,29.75,South,171,0.0,-999.0,61,-99.99,,,0.32,weatherlink.com 1.10,2013-02-20 01:17:00,
2013-02-19 17:32:00,46.2,34.0,29.75,WSW,240,5.0,-999.0,63,-99.99,,,0.32,weatherlink.com 1.10,2013-02-20 01:32:00,
2013-02-19 17:47:00,45.2,34.0,29.75,East,95,0.0,-999.0,64,-99.99,,,0.32,weatherlink.com 1.10,2013-02-20 01:47:00,
2013-02-19 18:02:00,44.5,34.0,29.75,WNW,298,0.0,-999.0,67,-99.99,,,0.32,weatherlink.com 1.10,2013-02-20 02:02:00,
2013-02-19 18:17:00,43.8,33.0,29.75,West,269,0.0,-999.0,67,-99.99,,,0.32,weatherlink.com 1.10,2013-02-20 02:17:00,
2013-02-19 18:32:00,43.1,33.0,29.77,West,276,0.0,-999.0,68,-99.99,,,0.32,weatherlink.com 1.10,2013-02-20 02:32:00,
2013-02-19 18:48:00,42.5,34.0,29.77,West,276,0.0,-999.0,71,-99.99,,,0.32,weatherlink.com 1.10,2013-02-20 02:48:00,
2013-02-19 19:03:00,41.9,34.0,29.77,West,276,0.0,-999.0,73,-99.99,,,0.32,weatherlink.com 1.10,2013-02-20 03:03:00,
2013-02-19 19:17:00,41.5,34.0,29.77,NNE,20,1.0,-999.0,74,-99.99,,,0.32,weatherlink.com 1.10,2013-02-20 03:17:00,
2013-02-19 19:32:00,41.2,34.0,29.77,NNE,15,0.0,-999.0,75,-99.99,,,0.32,weatherlink.com 1.10,2013-02-20 03:32:00,
2013-02-19 19:47:00,40.9,34.0,29.78,NNE,13,0.0,-999.0,75,-99.99,,,0.32,weatherlink.com 1.10,2013-02-20 03:47:00,
2013-02-19 20:02:00,40.3,34.0,29.78,NNE,13,0.0,-999.0,77,-99.99,,,0.32,weatherlink.com 1.10,2013-02-20 04:02:00,
2013-02-19 20:17:00,40.1,34.0,29.78,NNE,13,0.0,-999.0,79,-99.99,,,0.32,weatherlink.com 1.10,2013-02-20 04:17:00,
2013-02-19 20:33:00,39.9,34.0,29.78,NNE,13,0.0,-999.0,80,-99.99,,,0.32,weatherlink.com 1.10,2013-02-20 04:33:00,
2013-02-19 20:47:00,39.9,34.0,29.79,NNE,13,0.0,-999.0,79,-99.99,,,0.32,weatherlink.com 1.10,2013-02-20 04:47:00,
2013-02-19 21:02:00,40.2,34.0,29.80,NNE,20,0.0,-999.0,78,-99.99,,,0.32,weatherlink.com 1.10,2013-02-20 05:02:00,
2013-02-19 21:18:00,40.1,34.0,29.80,NNE,20,0.0,-999.0,78,-99.99,,,0.32,weatherlink.com 1.10,2013-02-20 05:18:00,
2013-02-19 21:34:00,39.8,34.0,29.80,NNE,20,0.0,-999.0,79,-99.99,,,0.32,weatherlink.com 1.10,2013-02-20 05:34:00,
2013-02-19 21:49:00,39.2,34.0,29.80,NNE,20,0.0,-999.0,80,-99.99,,,0.32,weatherlink.com 1.10,2013-02-20 05:49:00,
2013-02-19 22:04:00,38.9,34.0,29.81,NNE,20,0.0,-999.0,82,-99.99,,,0.32,weatherlink.com 1.10,2013-02-20 06:04:00,
2013-02-19 22:18:00,38.8,34.0,29.81,NNE,20,0.0,-999.0,82,-99.99,,,0.32,weatherlink.com 1.10,2013-02-20 06:18:00,
2013-02-19 22:34:00,38.6,34.0,29.81,NNE,20,0.0,-999.0,82,-99.99,,,0.32,weatherlink.com 1.10,2013-02-20 06:34:00,
2013-02-19 22:49:00,39.1,34.0,29.82,NNE,24,0.0,-999.0,81,-99.99,,,0.32,weatherlink.com 1.10,2013-02-20 06:49:00,
2013-02-19 23:04:00,39.5,34.0,29.83,NW,322,0.0,-999.0,80,-99.99,,,0.32,weatherlink.com 1.10,2013-02-20 07:04:00,
2013-02-19 23:19:00,39.9,34.0,29.83,NNE,14,0.0,-999.0,78,-99.99,,,0.32,weatherlink.com 1.10,2013-02-20 07:19:00,
2013-02-19 23:34:00,40.1,33.0,29.83,East,88,0.0,-999.0,77,-99.99,,,0.32,weatherlink.com 1.10,2013-02-20 07:34:00,
2013-02-19 23:49:00,40.1,33.0,29.83,ENE,72,0.0,-999.0,77,-99.99,,,0.32,weatherlink.com 1.10,2013-02-20 07:49:00,